This demonstration page uses our WeatherBlox Daily Observations layout. Learn more.

Left ArrowRight Arrow

44.31136, -96.79839

Hourly Observations for June 7, 2019

Temp ( °F °C ) Dew Point ( °F °C ) Humidity (%) Winds ( mph kmh ) Pressure ( in mb ) Visibility ( mi km ) Precip ( " mm )
12:56 am 00:56 Clear 66 18.9 58 14.4 75 75 SE 8 13 29.88 1012 10 16 0.00 0.00
1:56 am 01:56 Clear 69 20.6 54 12.2 59 59 SSE 7 11 29.87 1011 10 16 0.00 0.00
2:56 am 02:56 Clear 65 18.3 55 12.8 70 70 SSE 3 6 29.87 1011 10 16 0.00 0.00
3:56 am 03:56 Clear 63 17.2 53 11.7 70 70 SE 6 9 29.87 1011 10 16 0.00 0.00
4:56 am 04:56 Clear 63 17.2 54 12.2 73 73 SSE 8 13 N/A 10 16 0.00 0.00
5:56 am 05:56 Sunny 62 16.7 55 12.8 78 78 SE 9 15 29.88 1012 10 16 0.00 0.00
6:56 am 06:56 Sunny 66 18.9 58 14.4 75 75 SSE 7 11 29.88 1012 10 16 0.00 0.00
7:56 am 07:56 Sunny 70 21.1 61 16.1 73 73 SSE 9 15 29.88 1012 10 16 0.00 0.00
8:56 am 08:56 Sunny 76 24.4 64 17.8 67 67 S 13 20 29.87 1012 10 16 0.00 0.00
9:56 am 09:56 Sunny 80 26.7 66 18.9 62 62 S 16 26 29.87 1012 10 16 0.00 0.00
10:56 am 10:56 Sunny 82 27.8 65 18.3 56 56 S 16 26 29.88 1012 10 16 0.00 0.00
11:56 am 11:56 Sunny 84 28.9 62 16.7 48 48 S 22 35 29.86 1011 10 16 0.00 0.00
12:56 pm 12:56 Mostly Sunny 85 29.4 62 16.7 46 46 S 21 33 29.86 1011 10 16 0.00 0.00
1:56 pm 13:56 Mostly Sunny 86 30 61 16.1 43 43 SSW 21 33 29.85 1011 10 16 0.00 0.00
2:56 pm 14:56 Partly Cloudy 86 30 61 16.1 43 43 S 16 26 29.84 1010 10 16 0.00 0.00
3:56 pm 15:56 Sunny 87 30.6 59 15 39 39 S 20 31 29.83 1010 10 16 0.00 0.00
4:56 pm 16:56 Sunny 87 30.6 57 13.9 36 36 SSE 20 31 29.83 1010 10 16 0.00 0.00
5:56 pm 17:56 Sunny 87 30.6 57 13.9 36 36 SSE 18 30 29.82 1010 10 16 0.00 0.00
6:56 pm 18:56 Sunny 86 30 57 13.9 37 37 S 16 26 29.80 1009 10 16 0.00 0.00
7:56 pm 19:56 Sunny 83 28.3 56 13.3 40 40 S 14 22 29.80 1009 10 16 0.00 0.00
8:56 pm 20:56 Sunny 79 26.1 57 13.9 47 47 S 8 13 29.80 1009 10 16 0.00 0.00
9:56 pm 21:56 Clear 77 25 57 13.9 50 50 S 9 15 29.82 1010 10 16 0.00 0.00
10:56 pm 22:56 Clear 73 22.8 59 15 62 62 SE 10 17 29.85 1011 10 16 0.00 0.00
11:56 pm 23:56 Clear 72 22.2 60 15.6 66 66 SSE 9 15 29.84 1011 10 16 0.00 0.00

Powered by AerisWeather